"Sample Date","Sample Time","Sensor Name","Sample Value","Units","Flow Rate","Sample Interval","Sample Volume","Laser Status","Number Channels","Micron Size 0","Counts/Channel 0","Micron Size 1","Counts/Channel 1","Micron Size 2","Counts/Channel 2","Micron Size 3","Counts/Channel 3","Micron Size 4","Counts/Channel 4","Micron Size 5","Counts/Channel 5","Micron Size 6","Counts/Channel 6","Micron Size 7","Counts/Channel 7","Micron Size 8","Counts/Channel 8","Micron Size 9","Counts/Channel 9","Micron Size 10","Counts/Channel 10","Micron Size 11","Counts/Channel 11","Micron Size 12","Counts/Channel 12","Micron Size 13","Counts/Channel 13","Micron Size 14","Counts/Channel 14","Micron Size 15","Counts/Channel 15","Micron Size 16","Counts/Channel 16","Micron Size 17","Counts/Channel 17","Micron Size 18","Counts/Channel 18","Micron Size 19","Counts/Channel 19","Micron Size 20","Counts/Channel 20","Micron Size 21","Counts/Channel 21","Micron Size 22","Counts/Channel 22","Micron Size 23","Counts/Channel 23","Micron Size 24","Counts/Channel 24","Micron Size 25","Counts/Channel 25","Micron Size 26","Counts/Channel 26","Micron Size 27","Counts/Channel 27","Micron Size 28","Counts/Channel 28","Micron Size 29","Counts/Channel 29","Micron Size 30","Counts/Channel 30","Micron Size 31","Counts/Channel 31"
"07/04/06","23:00:02","AMMA06",46582.000,"cc",28287.061,6.00,2828.706,1,6,0.100,22550.000,0.200,20814.000,0.300,2371.000,0.500,508.000,1.000,339.000,5.000,0
"07/04/06","23:00:08","AMMA06",47016.000,"cc",28301.182,6.00,2830.118,1,6,0.100,22770.000,0.200,20929.000,0.300,2459.000,0.500,507.000,1.000,351.000,5.000,0
"07/04/06","23:00:14","AMMA06",47086.000,"cc",28320.670,6.00,2832.067,1,6,0.100,22938.000,0.200,20805.000,0.300,2505.000,0.500,507.000,1.000,331.000,5.000,0
"07/04/06","23:00:20","AMMA06",47728.000,"cc",28328.008,6.00,2832.801,1,6,0.100,23169.000,0.200,21198.000,0.300,2531.000,0.500,487.000,1.000,343.000,5.000,0
"07/04/06","23:00:26","AMMA06",47448.000,"cc",28448.289,6.00,2844.829,1,6,0.100,22938.000,0.200,21166.000,0.300,2542.000,0.500,488.000,1.000,314.000,5.000,0
"07/04/06","23:00:32","AMMA06",47269.000,"cc",28286.406,6.00,2828.641,1,6,0.100,23017.000,0.200,20868.000,0.300,2572.000,0.500,488.000,1.000,324.000,5.000,0
"07/04/06","23:00:38","AMMA06",47063.000,"cc",28214.414,6.00,2821.442,1,6,0.100,22849.000,0.200,20916.000,0.300,2458.000,0.500,520.000,1.000,320.000,5.000,0
"07/04/06","23:00:44","AMMA06",47213.000,"cc",28380.365,6.00,2838.037,1,6,0.100,23019.000,0.200,20912.000,0.300,2460.000,0.500,502.000,1.000,320.000,5.000,0
"07/04/06","23:00:50","AMMA06",47125.000,"cc",28303.697,6.00,2830.370,1,6,0.100,23095.000,0.200,20920.000,0.300,2332.000,0.500,470.000,1.000,308.000,5.000,0
"07/04/06","23:00:56","AMMA06",47559.000,"cc",28299.981,6.00,2829.998,1,6,0.100,23222.000,0.200,20965.000,0.300,2537.000,0.500,509.000,1.000,326.000,5.000,0
"07/04/06","23:01:02","AMMA06",47205.000,"cc",28331.043,6.00,2833.105,1,6,0.100,23258.000,0.200,20740.000,0.300,2435.000,0.500,458.000,1.000,314.000,5.000,0
"07/04/06","23:01:08","AMMA06",47396.000,"cc",28380.398,6.00,2838.040,1,6,0.100,23385.000,0.200,20643.000,0.300,2574.000,0.500,498.000,1.000,296.000,5.000,0
"07/04/06","23:01:14","AMMA06",47759.000,"cc",28293.643,6.00,2829.365,1,6,0.100,23334.000,0.200,21119.000,0.300,2495.000,0.500,502.000,1.000,309.000,5.000,0
"07/04/06","23:01:20","AMMA06",47873.000,"cc",28306.520,6.00,2830.652,1,6,0.100,23618.000,0.200,20874.000,0.300,2524.000,0.500,507.000,1.000,350.000,5.000,0
"07/04/06","23:01:26","AMMA06",47530.000,"cc",28301.414,6.00,2830.142,1,6,0.100,23505.000,0.200,20871.000,0.300,2378.000,0.500,462.000,1.000,314.000,5.000,0
"07/04/06","23:01:32","AMMA06",47404.000,"cc",28353.227,6.00,2835.323,1,6,0.100,23322.000,0.200,20753.000,0.300,2495.000,0.500,490.000,1.000,344.000,5.000,0
"07/04/06","23:01:38","AMMA06",47480.000,"cc",28274.492,6.00,2827.450,1,6,0.100,23671.000,0.200,20519.000,0.300,2444.000,0.500,530.000,1.000,316.000,5.000,0
"07/04/06","23:01:44","AMMA06",47996.000,"cc",28304.248,6.00,2830.425,1,6,0.100,23587.000,0.200,21103.000,0.300,2463.000,0.500,564.000,1.000,279.000,5.000,0
"07/04/06","23:01:50","AMMA06",47589.000,"cc",28389.561,6.00,2838.956,1,6,0.100,23821.000,0.200,20584.000,0.300,2369.000,0.500,498.000,1.000,317.000,5.000,0
"07/04/06","23:01:56","AMMA06",48020.000,"cc",28254.203,6.00,2825.420,1,6,0.100,23879.000,0.200,20978.000,0.300,2377.000,0.500,483.000,1.000,303.000,5.000,0
"07/04/06","23:02:02","AMMA06",47687.000,"cc",28347.965,6.00,2834.797,1,6,0.100,23794.000,0.200,20652.000,0.300,2427.000,0.500,503.000,1.000,311.000,5.000,0
"07/04/06","23:02:08","AMMA06",47923.000,"cc",28347.147,6.00,2834.715,1,6,0.100,23578.000,0.200,21063.000,0.300,2435.000,0.500,503.000,1.000,344.000,5.000,0
"07/04/06","23:02:14","AMMA06",47606.000,"cc",28309.168,6.00,2830.917,1,6,0.100,23663.000,0.200,20688.000,0.300,2459.000,0.500,481.000,1.000,315.000,5.000,0
"07/04/06","23:02:20","AMMA06",47463.000,"cc",28266.559,6.00,2826.656,1,6,0.100,23816.000,0.200,20633.000,0.300,2239.000,0.500,466.000,1.000,309.000,5.000,0
"07/04/06","23:02:26","AMMA06",47814.000,"cc",28284.773,6.00,2828.478,1,6,0.100,23779.000,0.200,20931.000,0.300,2342.000,0.500,479.000,1.000,283.000,5.000,0
"07/04/06","23:02:32","AMMA06",47858.000,"cc",28362.914,6.00,2836.292,1,6,0.100,24129.000,0.200,20611.000,0.300,2308.000,0.500,477.000,1.000,333.000,5.000,0
"07/04/06","23:02:38","AMMA06",47484.000,"cc",28310.291,6.00,2831.029,1,6,0.100,23737.000,0.200,20611.000,0.300,2352.000,0.500,473.000,1.000,311.000,5.000,0
"07/04/06","23:02:44","AMMA06",47741.000,"cc",28308.516,6.00,2830.852,1,6,0.100,23734.000,0.200,20766.000,0.300,2411.000,0.500,497.000,1.000,333.000,5.000,0
"07/04/06","23:02:50","AMMA06",48090.000,"cc",28341.318,6.00,2834.132,1,6,0.100,24226.000,0.200,20803.000,0.300,2288.000,0.500,472.000,1.000,301.000,5.000,0
"07/04/06","23:02:56","AMMA06",47998.000,"cc",28334.537,6.00,2833.454,1,6,0.100,24120.000,0.200,20772.000,0.300,2281.000,0.500,499.000,1.000,326.000,5.000,0
"07/04/06","23:03:02","AMMA06",47856.000,"cc",28331.981,6.00,2833.198,1,6,0.100,24186.000,0.200,20599.000,0.300,2299.000,0.500,481.000,1.000,291.000,5.000,0
"07/04/06","23:03:08","AMMA06",47734.000,"cc",28324.570,6.00,2832.457,1,6,0.100,24170.000,0.200,20438.000,0.300,2322.000,0.500,495.000,1.000,308.000,5.000,1.000
"07/04/06","23:03:14","AMMA06",47593.000,"cc",28340.104,6.00,2834.011,1,6,0.100,23699.000,0.200,20649.000,0.300,2413.000,0.500,536.000,1.000,296.000,5.000,0
"07/04/06","23:03:20","AMMA06",47559.000,"cc",28328.463,6.00,2832.846,1,6,0.100,23816.000,0.200,20580.000,0.300,2334.000,0.500,501.000,1.000,328.000,5.000,0
"07/04/06","23:03:26","AMMA06",47946.000,"cc",28320.434,6.00,2832.044,1,6,0.100,24254.000,0.200,20608.000,0.300,2299.000,0.500,505.000,1.000,280.000,5.000,0
"07/04/06","23:03:32","AMMA06",47611.000,"cc",28268.940,6.00,2826.894,1,6,0.100,23883.000,0.200,20561.000,0.300,2350.000,0.500,495.000,1.000,322.000,5.000,0
"07/04/06","23:03:38","AMMA06",47947.000,"cc",28345.898,6.00,2834.590,1,6,0.100,23974.000,0.200,20782.000,0.300,2343.000,0.500,534.000,1.000,314.000,5.000,0
"07/04/06","23:03:44","AMMA06",48116.000,"cc",28341.092,6.00,2834.109,1,6,0.100,23875.000,0.200,20965.000,0.300,2427.000,0.500,525.000,1.000,324.000,5.000,0
"07/04/06","23:03:50","AMMA06",47523.000,"cc",28286.268,6.00,2828.627,1,6,0.100,23827.000,0.200,20510.000,0.300,2323.000,0.500,522.000,1.000,341.000,5.000,0
"07/04/06","23:03:56","AMMA06",47114.000,"cc",28267.897,6.00,2826.790,1,6,0.100,23653.000,0.200,20283.000,0.300,2358.000,0.500,516.000,1.000,304.000,5.000,0
"07/04/06","23:04:02","AMMA06",47269.000,"cc",28309.510,6.00,2830.951,1,6,0.100,23791.000,0.200,20304.000,0.300,2357.000,0.500,500.000,1.000,317.000,5.000,0
"07/04/06","23:04:08","AMMA06",47592.000,"cc",28333.779,6.00,2833.378,1,6,0.100,23802.000,0.200,20556.000,0.300,2401.000,0.500,520.000,1.000,313.000,5.000,0
"07/04/06","23:04:14","AMMA06",47303.000,"cc",28323.553,6.00,2832.356,1,6,0.100,23619.000,0.200,20460.000,0.300,2341.000,0.500,529.000,1.000,354.000,5.000,0
"07/04/06","23:04:20","AMMA06",47804.000,"cc",28335.553,6.00,2833.555,1,6,0.100,23928.000,0.200,20743.000,0.300,2408.000,0.500,445.000,1.000,280.000,5.000,0
"07/04/06","23:04:26","AMMA06",47381.000,"cc",28367.781,6.00,2836.778,1,6,0.100,23590.000,0.200,20559.000,0.300,2380.000,0.500,506.000,1.000,346.000,5.000,0
"07/04/06","23:04:32","AMMA06",48193.000,"cc",28251.234,6.00,2825.124,1,6,0.100,23584.000,0.200,21281.000,0.300,2522.000,0.500,503.000,1.000,303.000,5.000,0
"07/04/06","23:04:38","AMMA06",48074.000,"cc",28296.139,6.00,2829.614,1,6,0.100,23818.000,0.200,20907.000,0.300,2549.000,0.500,496.000,1.000,304.000,5.000,0
"07/04/06","23:04:44","AMMA06",48254.000,"cc",28355.523,6.00,2835.553,1,6,0.100,23946.000,0.200,21022.000,0.300,2471.000,0.500,504.000,1.000,311.000,5.000,0
"07/04/06","23:04:50","AMMA06",48399.000,"cc",28344.799,6.00,2834.480,1,6,0.100,23672.000,0.200,21342.000,0.300,2539.000,0.500,508.000,1.000,338.000,5.000,0
"07/04/06","23:04:56","AMMA06",48623.000,"cc",28271.844,6.00,2827.185,1,6,0.100,23784.000,0.200,21452.000,0.300,2541.000,0.500,508.000,1.000,338.000,5.000,0
"07/04/06","23:05:02","AMMA06",48315.000,"cc",28353.443,6.00,2835.345,1,6,0.100,23684.000,0.200,21222.000,0.300,2576.000,0.500,509.000,1.000,324.000,5.000,0
"07/04/06","23:05:08","AMMA06",48420.000,"cc",28284.305,6.00,2828.431,1,6,0.100,23474.000,0.200,21607.000,0.300,2514.000,0.500,526.000,1.000,299.000,5.000,0
"07/04/06","23:05:14","AMMA06",48214.000,"cc",28341.373,6.00,2834.138,1,6,0.100,23713.000,0.200,21312.000,0.300,2442.000,0.500,452.000,1.000,295.000,5.000,0
"07/04/06","23:05:20","AMMA06",48671.000,"cc",28297.410,6.00,2829.741,1,6,0.100,23816.000,0.200,21436.000,0.300,2632.000,0.500,482.000,1.000,305.000,5.000,0
"07/04/06","23:05:26","AMMA06",48671.000,"cc",28375.893,6.00,2837.589,1,6,0.100,23728.000,0.200,21578.000,0.300,2592.000,0.500,441.000,1.000,332.000,5.000,0
"07/04/06","23:05:32","AMMA06",48443.000,"cc",28346.764,6.00,2834.677,1,6,0.100,23694.000,0.200,21349.000,0.300,2581.000,0.500,484.000,1.000,335.000,5.000,0
"07/04/06","23:05:38","AMMA06",48664.000,"cc",28227.438,6.00,2822.744,1,6,0.100,23612.000,0.200,21534.000,0.300,2688.000,0.500,495.000,1.000,335.000,5.000,0
"07/04/06","23:05:44","AMMA06",48446.000,"cc",28369.721,6.00,2836.972,1,6,0.100,23647.000,0.200,21367.000,0.300,2604.000,0.500,488.000,1.000,340.000,5.000,0
"07/04/06","23:05:50","AMMA06",48622.000,"cc",28295.262,6.00,2829.526,1,6,0.100,23588.000,0.200,21640.000,0.300,2572.000,0.500,521.000,1.000,301.000,5.000,0
"07/04/06","23:05:56","AMMA06",48742.000,"cc",28326.715,6.00,2832.672,1,6,0.100,23558.000,0.200,21796.000,0.300,2565.000,0.500,508.000,1.000,315.000,5.000,0
"07/04/06","23:06:02","AMMA06",49191.000,"cc",28254.199,6.00,2825.420,1,6,0.100,23982.000,0.200,21738.000,0.300,2637.000,0.500,505.000,1.000,329.000,5.000,0
"07/04/06","23:06:08","AMMA06",49290.000,"cc",28286.371,6.00,2828.637,1,6,0.100,23864.000,0.200,21836.000,0.300,2778.000,0.500,501.000,1.000,311.000,5.000,0
"07/04/06","23:06:14","AMMA06",48919.000,"cc",28360.453,6.00,2836.045,1,6,0.100,23632.000,0.200,21838.000,0.300,2570.000,0.500,535.000,1.000,344.000,5.000,0
"07/04/06","23:06:20","AMMA06",48619.000,"cc",28344.779,6.00,2834.478,1,6,0.100,23493.000,0.200,21736.000,0.300,2609.000,0.500,485.000,1.000,296.000,5.000,0
"07/04/06","23:06:26","AMMA06",48810.000,"cc",28364.617,6.00,2836.462,1,6,0.100,23525.000,0.200,21820.000,0.300,2604.000,0.500,525.000,1.000,336.000,5.000,0
"07/04/06","23:06:32","AMMA06",48615.000,"cc",28295.828,6.00,2829.583,1,6,0.100,23461.000,0.200,21651.000,0.300,2644.000,0.500,522.000,1.000,337.000,5.000,0
"07/04/06","23:06:38","AMMA06",48583.000,"cc",28227.051,6.00,2822.705,1,6,0.100,23609.000,0.200,21624.000,0.300,2549.000,0.500,488.000,1.000,313.000,5.000,0
"07/04/06","23:06:44","AMMA06",48796.000,"cc",28318.637,6.00,2831.864,1,6,0.100,23467.000,0.200,21837.000,0.300,2679.000,0.500,485.000,1.000,328.000,5.000,0
"07/04/06","23:06:50","AMMA06",48625.000,"cc",28350.992,6.00,2835.099,1,6,0.100,23228.000,0.200,21949.000,0.300,2592.000,0.500,543.000,1.000,313.000,5.000,0
"07/04/06","23:06:56","AMMA06",48548.000,"cc",28284.656,6.00,2828.466,1,6,0.100,23402.000,0.200,21724.000,0.300,2574.000,0.500,481.000,1.000,367.000,5.000,0
"07/04/06","23:07:02","AMMA06",49164.000,"cc",28301.992,6.00,2830.200,1,6,0.100,23684.000,0.200,21993.000,0.300,2613.000,0.500,527.000,1.000,347.000,5.000,0
"07/04/06","23:07:08","AMMA06",48900.000,"cc",28323.232,6.00,2832.324,1,6,0.100,23358.000,0.200,22056.000,0.300,2648.000,0.500,522.000,1.000,316.000,5.000,0
"07/04/06","23:07:14","AMMA06",48822.000,"cc",28314.207,6.00,2831.421,1,6,0.100,23490.000,0.200,21935.000,0.300,2606.000,0.500,506.000,1.000,285.000,5.000,0
"07/04/06","23:07:20","AMMA06",48816.000,"cc",28327.764,6.00,2832.777,1,6,0.100,23339.000,0.200,21961.000,0.300,2666.000,0.500,512.000,1.000,338.000,5.000,0
"07/04/06","23:07:26","AMMA06",48844.000,"cc",28369.986,6.00,2836.999,1,6,0.100,23451.000,0.200,21858.000,0.300,2637.000,0.500,538.000,1.000,360.000,5.000,0
"07/04/06","23:07:32","AMMA06",48926.000,"cc",28260.065,6.00,2826.007,1,6,0.100,23598.000,0.200,21782.000,0.300,2734.000,0.500,493.000,1.000,319.000,5.000,0
"07/04/06","23:07:38","AMMA06",48537.000,"cc",28337.295,6.00,2833.730,1,6,0.100,23391.000,0.200,21727.000,0.300,2607.000,0.500,509.000,1.000,303.000,5.000,0
"07/04/06","23:07:44","AMMA06",48688.000,"cc",28273.236,6.00,2827.324,1,6,0.100,23299.000,0.200,21875.000,0.300,2660.000,0.500,511.000,1.000,343.000,5.000,0
"07/04/06","23:07:50","AMMA06",48476.000,"cc",28296.488,6.00,2829.649,1,6,0.100,23252.000,0.200,21714.000,0.300,2634.000,0.500,521.000,1.000,355.000,5.000,0
"07/04/06","23:07:56","AMMA06",48848.000,"cc",28363.414,6.00,2836.342,1,6,0.100,23382.000,0.200,21946.000,0.300,2688.000,0.500,505.000,1.000,326.000,5.000,1.000
"07/04/06","23:08:02","AMMA06",48653.000,"cc",28317.400,6.00,2831.740,1,6,0.100,23270.000,0.200,21848.000,0.300,2688.000,0.500,509.000,1.000,338.000,5.000,0
"07/04/06","23:08:08","AMMA06",48466.000,"cc",28373.828,6.00,2837.383,1,6,0.100,23058.000,0.200,21845.000,0.300,2730.000,0.500,475.000,1.000,358.000,5.000,0
"07/04/06","23:08:14","AMMA06",48572.000,"cc",28373.139,6.00,2837.314,1,6,0.100,23270.000,0.200,21872.000,0.300,2676.000,0.500,450.000,1.000,304.000,5.000,0
"07/04/06","23:08:20","AMMA06",48683.000,"cc",28353.240,6.00,2835.324,1,6,0.100,23181.000,0.200,22009.000,0.300,2699.000,0.500,441.000,1.000,353.000,5.000,0
"07/04/06","23:08:26","AMMA06",48258.000,"cc",28272.906,6.00,2827.291,1,6,0.100,23019.000,0.200,21769.000,0.300,2664.000,0.500,497.000,1.000,309.000,5.000,0
"07/04/06","23:08:32","AMMA06",48812.000,"cc",28327.191,6.00,2832.719,1,6,0.100,23305.000,0.200,21931.000,0.300,2711.000,0.500,526.000,1.000,339.000,5.000,0
"07/04/06","23:08:38","AMMA06",48128.000,"cc",28269.033,6.00,2826.904,1,6,0.100,23039.000,0.200,21632.000,0.300,2610.000,0.500,523.000,1.000,324.000,5.000,0
"07/04/06","23:08:44","AMMA06",48279.000,"cc",28378.106,6.00,2837.811,1,6,0.100,23091.000,0.200,21732.000,0.300,2638.000,0.500,484.000,1.000,334.000,5.000,0
"07/04/06","23:08:50","AMMA06",48205.000,"cc",28271.039,6.00,2827.104,1,6,0.100,22841.000,0.200,21846.000,0.300,2718.000,0.500,474.000,1.000,326.000,5.000,0
"07/04/06","23:08:56","AMMA06",48260.000,"cc",28305.879,6.00,2830.588,1,6,0.100,23040.000,0.200,21715.000,0.300,2686.000,0.500,485.000,1.000,334.000,5.000,0
"07/04/06","23:09:02","AMMA06",48167.000,"cc",28310.635,6.00,2831.064,1,6,0.100,22965.000,0.200,21637.000,0.300,2728.000,0.500,510.000,1.000,327.000,5.000,0
"07/04/06","23:09:08","AMMA06",48475.000,"cc",28277.565,6.00,2827.757,1,6,0.100,22942.000,0.200,22101.000,0.300,2624.000,0.500,480.000,1.000,328.000,5.000,0
"07/04/06","23:09:14","AMMA06",48796.000,"cc",28382.481,6.00,2838.248,1,6,0.100,23262.000,0.200,22143.000,0.300,2590.000,0.500,484.000,1.000,317.000,5.000,0
"07/04/06","23:09:20","AMMA06",48469.000,"cc",28327.074,6.00,2832.708,1,6,0.100,22868.000,0.200,21942.000,0.300,2806.000,0.500,526.000,1.000,327.000,5.000,0
"07/04/06","23:09:26","AMMA06",48699.000,"cc",28186.658,6.00,2818.666,1,6,0.100,22897.000,0.200,22232.000,0.300,2791.000,0.500,485.000,1.000,294.000,5.000,0
"07/04/06","23:09:32","AMMA06",48972.000,"cc",28337.305,6.00,2833.731,1,6,0.100,23311.000,0.200,22087.000,0.300,2754.000,0.500,480.000,1.000,340.000,5.000,0
"07/04/06","23:09:38","AMMA06",49071.000,"cc",28358.412,6.00,2835.841,1,6,0.100,23396.000,0.200,22079.000,0.300,2788.000,0.500,488.000,1.000,320.000,5.000,0
"07/04/06","23:09:44","AMMA06",48594.000,"cc",28326.445,6.00,2832.645,1,6,0.100,23069.000,0.200,22029.000,0.300,2695.000,0.500,472.000,1.000,329.000,5.000,0
"07/04/06","23:09:50","AMMA06",48872.000,"cc",28331.764,6.00,2833.177,1,6,0.100,23290.000,0.200,21888.000,0.300,2885.000,0.500,471.000,1.000,338.000,5.000,0
"07/04/06","23:09:56","AMMA06",49090.000,"cc",28378.219,6.00,2837.822,1,6,0.100,23392.000,0.200,22108.000,0.300,2780.000,0.500,481.000,1.000,329.000,5.000,0
"07/04/06","23:10:02","AMMA06",48733.000,"cc",28282.440,6.00,2828.244,1,6,0.100,23075.000,0.200,22184.000,0.300,2670.000,0.500,482.000,1.000,322.000,5.000,0
"07/04/06","23:10:08","AMMA06",48725.000,"cc",28329.580,6.00,2832.958,1,6,0.100,23115.000,0.200,22024.000,0.300,2760.000,0.500,503.000,1.000,323.000,5.000,0
"07/04/06","23:10:14","AMMA06",48961.000,"cc",28284.049,6.00,2828.405,1,6,0.100,23602.000,0.200,21880.000,0.300,2700.000,0.500,482.000,1.000,297.000,5.000,0
"07/04/06","23:10:20","AMMA06",48770.000,"cc",28282.867,6.00,2828.287,1,6,0.100,23356.000,0.200,21830.000,0.300,2725.000,0.500,501.000,1.000,358.000,5.000,0
"07/04/06","23:10:26","AMMA06",48952.000,"cc",28310.629,6.00,2831.063,1,6,0.100,23484.000,0.200,21991.000,0.300,2635.000,0.500,524.000,1.000,318.000,5.000,0
"07/04/06","23:10:32","AMMA06",48901.000,"cc",28325.557,6.00,2832.556,1,6,0.100,23558.000,0.200,21816.000,0.300,2667.000,0.500,508.000,1.000,352.000,5.000,0
"07/04/06","23:10:38","AMMA06",49049.000,"cc",28283.846,6.00,2828.385,1,6,0.100,23723.000,0.200,21841.000,0.300,2655.000,0.500,491.000,1.000,339.000,5.000,0
"07/04/06","23:10:44","AMMA06",49240.000,"cc",28292.967,6.00,2829.297,1,6,0.100,23699.000,0.200,22120.000,0.300,2600.000,0.500,528.000,1.000,293.000,5.000,0
"07/04/06","23:10:50","AMMA06",49259.000,"cc",28327.592,6.00,2832.759,1,6,0.100,23799.000,0.200,21994.000,0.300,2656.000,0.500,485.000,1.000,325.000,5.000,0
"07/04/06","23:10:56","AMMA06",49043.000,"cc",28339.803,6.00,2833.981,1,6,0.100,23541.000,0.200,22071.000,0.300,2645.000,0.500,468.000,1.000,318.000,5.000,0
"07/04/06","23:11:02","AMMA06",48946.000,"cc",28305.580,6.00,2830.558,1,6,0.100,23832.000,0.200,21727.000,0.300,2583.000,0.500,483.000,1.000,321.000,5.000,0
"07/04/06","23:11:08","AMMA06",49416.000,"cc",28339.916,6.00,2833.992,1,6,0.100,24090.000,0.200,21869.000,0.300,2656.000,0.500,480.000,1.000,321.000,5.000,0
"07/04/06","23:11:14","AMMA06",49243.000,"cc",28302.098,6.00,2830.210,1,6,0.100,23808.000,0.200,21972.000,0.300,2651.000,0.500,480.000,1.000,332.000,5.000,0
"07/04/06","23:11:20","AMMA06",48762.000,"cc",28324.594,6.00,2832.460,1,6,0.100,24037.000,0.200,21342.000,0.300,2572.000,0.500,484.000,1.000,327.000,5.000,0
"07/04/06","23:11:26","AMMA06",49396.000,"cc",28300.815,6.00,2830.082,1,6,0.100,24068.000,0.200,21951.000,0.300,2571.000,0.500,503.000,1.000,303.000,5.000,0
"07/04/06","23:11:32","AMMA06",48589.000,"cc",28293.516,6.00,2829.352,1,6,0.100,23675.000,0.200,21577.000,0.300,2551.000,0.500,476.000,1.000,310.000,5.000,0
"07/04/06","23:11:38","AMMA06",49364.000,"cc",28361.891,6.00,2836.189,1,6,0.100,24038.000,0.200,21845.000,0.300,2623.000,0.500,497.000,1.000,361.000,5.000,0
"07/04/06","23:11:44","AMMA06",49018.000,"cc",28310.527,6.00,2831.053,1,6,0.100,24067.000,0.200,21554.000,0.300,2550.000,0.500,516.000,1.000,331.000,5.000,0
"07/04/06","23:11:50","AMMA06",48875.000,"cc",28297.898,6.00,2829.790,1,6,0.100,24047.000,0.200,21453.000,0.300,2593.000,0.500,456.000,1.000,326.000,5.000,0
"07/04/06","23:11:56","AMMA06",49173.000,"cc",28267.035,6.00,2826.704,1,6,0.100,24118.000,0.200,21695.000,0.300,2539.000,0.500,505.000,1.000,316.000,5.000,0
"07/04/06","23:12:02","AMMA06",49486.000,"cc",28258.074,6.00,2825.808,1,6,0.100,24446.000,0.200,21755.000,0.300,2481.000,0.500,504.000,1.000,300.000,5.000,0
"07/04/06","23:12:08","AMMA06",48986.000,"cc",28355.262,6.00,2835.526,1,6,0.100,24257.000,0.200,21454.000,0.300,2500.000,0.500,473.000,1.000,302.000,5.000,0
"07/04/06","23:12:14","AMMA06",49106.000,"cc",28421.482,6.00,2842.148,1,6,0.100,24473.000,0.200,21251.000,0.300,2599.000,0.500,477.000,1.000,306.000,5.000,0
"07/04/06","23:12:20","AMMA06",48784.000,"cc",28329.168,6.00,2832.917,1,6,0.100,24139.000,0.200,21355.000,0.300,2458.000,0.500,511.000,1.000,321.000,5.000,0
"07/04/06","23:12:26","AMMA06",49216.000,"cc",28329.147,6.00,2832.915,1,6,0.100,24478.000,0.200,21422.000,0.300,2507.000,0.500,487.000,1.000,322.000,5.000,0
"07/04/06","23:12:32","AMMA06",49227.000,"cc",28251.266,6.00,2825.127,1,6,0.100,24401.000,0.200,21440.000,0.300,2557.000,0.500,514.000,1.000,315.000,5.000,0
"07/04/06","23:12:38","AMMA06",48976.000,"cc",28324.461,6.00,2832.446,1,6,0.100,24357.000,0.200,21354.000,0.300,2442.000,0.500,503.000,1.000,320.000,5.000,0
"07/04/06","23:12:44","AMMA06",49147.000,"cc",28299.889,6.00,2829.989,1,6,0.100,24293.000,0.200,21435.000,0.300,2593.000,0.500,511.000,1.000,315.000,5.000,0
"07/04/06","23:12:50","AMMA06",48737.000,"cc",28314.004,6.00,2831.401,1,6,0.100,24294.000,0.200,21128.000,0.300,2520.000,0.500,501.000,1.000,294.000,5.000,0
"07/04/06","23:12:56","AMMA06",48691.000,"cc",28347.457,6.00,2834.746,1,6,0.100,24097.000,0.200,21283.000,0.300,2488.000,0.500,518.000,1.000,305.000,5.000,0
"07/04/06","23:13:02","AMMA06",48541.000,"cc",28270.863,6.00,2827.086,1,6,0.100,24375.000,0.200,20898.000,0.300,2441.000,0.500,497.000,1.000,330.000,5.000,0
"07/04/06","23:13:08","AMMA06",48757.000,"cc",28328.910,6.00,2832.891,1,6,0.100,24312.000,0.200,21206.000,0.300,2444.000,0.500,493.000,1.000,302.000,5.000,0
"07/04/06","23:13:14","AMMA06",49345.000,"cc",28362.086,6.00,2836.209,1,6,0.100,24688.000,0.200,21248.000,0.300,2533.000,0.500,549.000,1.000,327.000,5.000,0
"07/04/06","23:13:20","AMMA06",48725.000,"cc",28311.547,6.00,2831.155,1,6,0.100,24425.000,0.200,21101.000,0.300,2438.000,0.500,490.000,1.000,271.000,5.000,0
"07/04/06","23:13:26","AMMA06",48816.000,"cc",28246.309,6.00,2824.631,1,6,0.100,24412.000,0.200,21188.000,0.300,2407.000,0.500,514.000,1.000,295.000,5.000,0
"07/04/06","23:13:32","AMMA06",48952.000,"cc",28385.107,6.00,2838.511,1,6,0.100,24527.000,0.200,21209.000,0.300,2402.000,0.500,528.000,1.000,286.000,5.000,0
"07/04/06","23:13:38","AMMA06",48883.000,"cc",28372.750,6.00,2837.275,1,6,0.100,24613.000,0.200,20903.000,0.300,2570.000,0.500,482.000,1.000,314.000,5.000,1.000
"07/04/06","23:13:44","AMMA06",48772.000,"cc",28278.223,6.00,2827.823,1,6,0.100,24523.000,0.200,21036.000,0.300,2387.000,0.500,494.000,1.000,332.000,5.000,0
"07/04/06","23:13:50","AMMA06",48730.000,"cc",28300.557,6.00,2830.056,1,6,0.100,24637.000,0.200,20818.000,0.300,2467.000,0.500,484.000,1.000,324.000,5.000,0
"07/04/06","23:13:56","AMMA06",48847.000,"cc",28294.643,6.00,2829.464,1,6,0.100,24652.000,0.200,20950.000,0.300,2442.000,0.500,491.000,1.000,312.000,5.000,0
"07/04/06","23:14:02","AMMA06",48425.000,"cc",28372.764,6.00,2837.277,1,6,0.100,24217.000,0.200,20988.000,0.300,2356.000,0.500,515.000,1.000,349.000,5.000,0
"07/04/06","23:14:08","AMMA06",48808.000,"cc",28298.565,6.00,2829.857,1,6,0.100,24563.000,0.200,20947.000,0.300,2456.000,0.500,542.000,1.000,300.000,5.000,0
"07/04/06","23:14:14","AMMA06",48655.000,"cc",28327.459,6.00,2832.746,1,6,0.100,24398.000,0.200,20984.000,0.300,2505.000,0.500,467.000,1.000,301.000,5.000,0